SCP
0 0 0 0 0 0 0 0 0 0 0 0 0 0 0 0 0 0 0 0 0 0 0 0 0 0 0 0 0 0 0 0 0 0 0 0 0 0 0 0 0 0 0 0 0 0 0
0 0 0 0 0 0 0 0 0 0 0 0 0 0 0 0 0 0 0 0 0 0 0 0 0 0 0 0 0 0 0 0 0 0 0 0 0 0 0 0 0 0 0 0 0 0 0
0 0 0 0 0 0 0 0 0 0 0 0 0 0 0 0 0 0 0 0 0 0 0 0 0 0 0 0 0 0 0 0 0 0 0 0 0 0 0 0 0 0 0 0 0 0 0
0 0 0 0 0 0 0 0 0 0 0 0 0 0 0 0 0 0 0 0 0 0 0 0 0 0 0 0 0 0 0 0 0 0 0 0 0 0 0 0 0 0 0 0 0 0 0
0 0 0 0 0 0 0 0 0 0 0 0 0 0 0 0 0 0 0 0 0 0 0 0 0 0 0 0 0 0 0 0 0 0 0 0 0 0 0 0 0 0 0 0 0 0 0
0 0 0 0 0 0 0 0 0 0 0 0 0 0 0 0 0 0 0 0 0 0 0 0 0 0 0 0 0 0 0 0 0 0 0 0 0 0 0 0 0 0 0 0 0 0 0
0 0 0 0 0 0 0 0 0 0 0 0 0 0 0 0 0 0 0 0 0 0 0 0 0 0 0 0 0 0 0 0 0 0 0 0 0 0 0 0 0 0 0 0 0 0 0
0 0 0 0 0 0 0 0 0 0 0 0 0 0 0 0 0 0 0 0 0 0 0 0 0 0 0 0 0 0 0 0 0 0 0 0 0 0 0 0 0 0 0 0 0 0 0
0 0 0 0 -0 0 0 0 0 0 0 0 0 0 0 0 0 0 0 0 0 0 0 0 0 0 0 0 0 0 0 0 0 0 0 0 0 0 0 0 0 0 0 0 0 0 0
0 0 0 0 0 0 0 0 0 0 0 0 0 0 0 0 0 0 0 0 0 0 0 0 0 0 0 0 0 0 0 0 0 0 0 0 0 0 0 0 0 0 0 0 0 0 0
0 0 0 0 0 0 0 0 0 0 0 0 0 0 0 0 0 0 0 0 0 0 0 0 0 0 0 0 0 0 0 0 0 0 0 0 0 0 0 0 0 0 0 0 0 0 0
0 0 0 0 0 0 0 0 0 -0 0 0 0 0 0 0 0 0 0 0 0 0 0 0 0 0 0 0 0 0 0 0 0 0 0 0 0 0 0 0 0 0 0 0 0 0 0
0 0 0 0 0 0 0 -0 -0 -0 -0 0 0 0 0 0 0 0 0 0 0 0 0 0 0 0 0 0 0 0 0 0 0 0 0 0 0 0 0 0 0 0 0 0 0 0 0
0 0 0 0 0 0 -0 0 0 0 0 0 0 0 0 0 0 0 0 0 0 0 0 0 0 0 0 0 0 0 0 0 0 0 0 0 0 0 0 0 0 0 0 0 0 0 0
0 0 0 0 0 0 0 0 0 0 0 0 0 0 0 0 0 0 0 0 0 0 0 0 0 0 0 0 0 0 0 0 0 0 0 0 0 0 0 0 0 0 0 0 0 0 0
0 0 0 0 0 0 0 0 0 0 0 0 0 0 0 0 0 0 0 0 0 0 0 0 0 0 0 0 0 0 0 0 0 0 0 0 0 0 0 0 0 0 0 0 0 0 0
0 0 0 0 0 0 0 0 0 0 0 0 0 0 0 0 0 0 0 0 0 0 0 0 0 0 0 0 0 0 0 0 0 0 0 0 0 0 0 0 0 0 0 0 0 0 0
0 0 0 0 0 0 -0 -0 0 0 0 0 0 0 0 0 0 0 0 0 0 0 0 0 0 0 0 0 0 0 0 0 0 0 0 0 0 0 0 0 0 0 0 0 0 0 0
0 0 0 0 0 0 -0 -0 0 0 0 0 0 0 0 0 0 0 0 0 0 0 0 0 0 0 0 0 0 0 0 0 0 0 0 0 0 0 0 0 0 0 0 0 0 0 0
0 0 0 0 0 0 0 -0 -0 -0 0 0 0 0 0 0 0 0 0 0 0 0 0 0 0 0 0 0 0 0 0 0 0 0 0 0 0 0 0 0 0 0 0 0 0 0 0
0 0 0 0 0 0 0 0 -0 -0 0 0 0 0 0 0 0 0 0 0 0 0 0 0 0 0 0 0 0 0 0 0 0 0 0 0 0 0 0 0 0 0 0 0 0 0 0
0 0 0 0 0 0 0 0 0 -0 0 0 0 0 0 0 0 0 0 0 0 0 0 0 0 0 0 0 0 0 0 0 0 0 0 0 0 0 0 0 0 0 0 0 0 0 0
0 0 0 0 0 0 0 0 0 0 -0 0 0 0 0 0 0 0 0 0 0 0 0 0 0 0 0 0 0 0 0 0 0 0 0 0 0 0 0 0 0 0 0 0 0 0 0
0 0 0 0 0 0 0 0 0 0 0 0 0 0 0 0 0 0 0 0 0 0 0 0 0 0 0 0 0 0 0 0 0 0 0 0 0 0 0 0 0 0 0 0 0 0 -0
0 0 0 0 0 -0 0 -0 0 0 0 0 0 0 0 0 0 0 0 0 0 0 0 0 0 0 0 0 0 0 0 0 0 0 0 0 0 0 0 0 0 0 0 0 0 0 0
0 0 0 0 0 0 -0 0 0 0 0 0 0 0 0 0 0 0 0 0 0 0 0 0 0 0 0 0 0 0 0 0 0 0 0 0 0 0 0 0 0 0 0 0 0 0 0
0 0 0 0 0 0 0 0 0 0 0 0 0 0 0 0 0 0 0 0 0 0 0 0 0 0 0 0 0 0 0 0 0 0 0 0 0 0 0 0 0 0 0 0 0 0 0
0 0 0 0 0 0 0 0 0 0 0 0 0 0 0 0 0 0 0 0 0 0 0 0 0 0 0 0 0 0 0 0 0 0 0 0 0 0 0 0 0 0 0 0 0 0 0
0 0 0 0 0 0 0 0 0 0 0 0 0 0 0 0 0 0 0 0 0 0 0 0 0 0 0 0 0 0 0 0 0 0 0 0 0 0 0 0 0 0 0 0 0 0 0
Wind_Speed_500mb
38 36 34 32 32 32 31 28 26 24 21 20 19 20 20 20 19 18 17 17 16 14 14 14 13 11 7 7 9 13 10 7 6 5 4 7 13 11 15 9 12 25 22 20 25 24 26
42 45 43 38 36 37 35 32 30 26 24 22 22 25 24 24 21 19 18 18 18 16 14 12 11 9 6 14 14 11 9 7 8 5 6 6 6 9 14 11 14 10 19 31 28 32 23
31 37 52 48 42 40 39 36 33 28 26 26 25 24 28 27 20 22 21 20 20 19 16 13 10 8 11 10 17 11 9 7 7 7 5 8 7 6 4 10 10 14 19 25 28 19 15
44 43 48 58 54 46 43 42 38 31 31 33 30 30 29 24 21 23 23 23 22 21 18 14 10 5 7 13 14 11 7 4 4 4 6 6 5 4 7 8 10 11 12 14 12 8 5
44 48 53 57 58 56 47 44 40 39 41 42 38 35 32 23 21 19 20 20 20 20 18 14 7 6 5 11 9 10 10 6 5 7 8 6 2 6 5 10 17 15 17 23 18 4 3
47 43 51 42 49 57 46 47 50 50 47 45 40 41 33 25 20 18 18 17 18 19 16 13 12 6 11 8 13 12 9 7 5 4 4 5 8 10 10 12 8 17 20 23 21 5 11
32 44 42 24 8 40 45 46 50 55 50 51 47 41 33 27 23 19 17 13 7 8 14 10 7 3 14 15 12 8 9 5 6 9 8 6 10 14 8 9 19 17 24 32 33 32 18
34 39 34 38 39 31 5 29 33 41 42 42 40 38 33 30 27 24 19 12 15 6 12 19 19 14 14 17 8 9 11 10 11 13 8 7 15 8 3 3 11 16 24 28 23 11 6
29 35 43 36 16 12 13 16 16 13 12 13 20 24 27 31 30 28 25 25 19 11 12 8 12 10 8 18 9 12 13 7 10 12 15 14 6 2 7 10 13 17 20 24 27 29 30
21 26 29 30 23 23 21 18 11 21 26 28 29 20 17 16 21 27 25 23 17 9 8 13 11 8 11 10 8 11 13 6 7 9 7 10 8 3 7 11 8 13 8 10 16 15 11
24 16 27 27 22 21 22 19 20 19 18 20 20 23 28 11 12 17 19 24 14 7 8 15 10 14 13 8 13 3 9 5 8 8 5 7 6 6 5 5 3 5 10 13 13 14 19
30 26 13 11 15 20 26 28 34 34 39 41 32 19 18 21 19 16 15 20 15 5 17 11 12 12 11 9 5 8 5 4 3 5 5 6 2 3 2 2 5 10 12 18 7 7 10
30 43 32 25 22 28 33 42 56 53 51 38 29 23 20 19 19 21 23 20 6 11 2 10 10 14 17 10 9 11 10 11 6 7 10 7 7 5 3 9 6 4 8 5 7 7 5
34 35 43 47 40 44 47 51 41 37 33 21 23 22 23 24 18 26 29 6 17 2 4 2 8 16 11 12 6 9 9 11 8 4 5 9 9 10 2 3 3 2 3 7 11 7 10
42 32 39 42 49 47 46 37 33 25 20 8 13 16 21 29 27 33 17 16 8 5 7 16 11 9 10 7 3 11 13 5 7 13 7 8 4 8 9 5 2 6 7 5 8 3 6
44 39 35 31 34 37 39 39 31 23 11 4 13 14 24 29 28 32 7 17 2 1 3 4 9 5 15 13 13 10 13 4 10 5 2 4 3 2 5 4 2 7 4 4 7 7 8
44 49 42 37 32 29 31 27 19 23 15 13 18 10 14 28 30 15 11 10 6 5 2 6 5 6 5 9 14 10 11 6 4 9 3 9 2 7 3 11 10 7 7 8 4 6 7
47 41 53 43 36 33 21 20 18 18 18 22 13 5 16 36 11 5 5 8 8 8 3 3 6 4 7 11 7 11 14 3 8 11 8 6 3 9 6 4 2 6 5 10 7 8 4
41 43 40 53 44 35 23 22 21 17 22 20 10 10 17 39 10 6 3 2 5 8 8 9 12 6 5 12 8 10 9 9 12 5 7 8 9 6 7 3 5 9 11 8 2 1 15
40 43 35 28 46 38 31 25 18 21 29 22 9 7 8 23 8 13 11 7 8 10 8 9 7 9 7 7 5 11 13 7 10 7 5 4 8 13 6 6 4 8 14 18 15 9 9
51 37 39 33 49 43 39 32 23 12 31 24 11 5 9 10 12 8 17 13 18 11 6 13 9 9 12 11 7 9 13 11 9 13 4 6 10 5 15 20 18 24 22 23 29 25 15
47 46 37 33 36 39 45 43 35 23 35 32 6 6 5 2 8 27 17 18 23 10 16 10 11 18 11 9 7 12 19 13 9 12 11 8 3 3 8 3 5 11 20 26 29 31 29
38 39 43 37 40 37 56 52 44 34 24 26 24 14 6 10 8 17 28 24 22 19 19 7 21 9 14 14 11 10 10 10 5 14 18 11 6 3 5 3 14 14 13 19 8 3 17
43 35 42 45 41 45 52 54 49 46 38 23 26 16 9 8 15 19 9 33 24 26 10 12 6 10 11 19 20 12 11 5 5 13 14 11 7 4 7 3 9 4 2 2 8 9 17
46 42 36 44 43 39 38 67 54 48 49 32 33 25 7 6 19 17 16 14 13 14 8 12 5 4 28 13 5 5 3 3 6 8 17 9 9 5 6 8 10 6 8 9 9 5 14
47 43 41 36 43 40 43 43 65 54 51 46 32 41 19 6 9 5 19 20 10 13 10 8 10 27 16 5 6 9 9 3 7 6 5 9 6 10 6 7 7 6 6 8 4 9 8
53 45 41 40 38 39 39 34 53 55 52 49 30 31 23 7 3 10 7 12 14 13 6 11 14 11 12 7 11 9 8 3 7 13 11 10 9 23 17 9 8 6 11 14 5 4 5
54 49 42 40 32 42 37 39 43 66 53 56 40 30 37 12 7 7 9 3 11 21 9 16 12 7 8 11 8 6 7 9 5 5 10 16 17 10 11 11 15 18 13 7 3 11 17
52 48 44 41 33 42 36 34 42 68 59 60 39 32 38 18 4 12 18 22 20 16 11 30 3 9 14 8 4 3 5 4 5 5 9 10 7 5 12 3 7 26 3 4 12 12 16
Wind_Direction_500mb
291 291 286 278 273 267 263 258 256 256 258 260 262 266 270 273 278 283 286 288 289 294 301 302 297 285 264 245 238 235 255 265 278 276 232 219 229 248 252 257 247 243 269 276 267 268 265
286 287 284 279 271 266 260 256 254 254 256 258 263 270 273 269 275 279 286 290 294 292 289 294 291 268 230 243 240 234 242 258 273 267 243 210 234 243 278 249 236 336 289 277 277 267 264
292 280 279 275 271 263 257 251 248 248 253 260 263 269 276 276 270 273 280 286 288 291 287 285 284 275 258 256 214 218 246 250 248 214 245 220 210 212 278 255 269 281 289 281 250 255 259
301 296 291 271 262 261 253 249 242 240 254 258 267 275 277 282 273 278 283 284 282 287 286 278 271 242 264 222 211 219 222 217 188 185 203 218 211 240 241 300 254 265 258 286 110 157 157
317 316 302 276 258 254 249 245 246 237 240 251 254 264 280 275 279 286 288 283 280 280 277 276 262 202 226 210 196 201 178 181 241 263 258 250 213 260 246 256 275 205 284 286 302 140 295
307 313 321 292 252 253 238 241 246 243 235 234 243 258 269 264 270 283 288 282 280 275 264 261 221 218 212 190 192 187 210 230 214 210 247 211 215 241 225 230 259 313 289 290 275 193 242
306 315 321 354 92 228 233 238 202 213 214 234 239 247 250 253 261 270 278 283 278 258 215 237 156 156 142 175 189 228 223 191 194 222 231 188 232 222 277 271 295 293 285 285 285 292 289
285 293 316 318 303 311 163 194 206 208 210 216 229 239 243 248 253 258 258 227 247 217 258 246 232 232 198 187 190 205 189 191 197 218 177 199 239 72 49 283 274 272 277 282 295 33 298
284 288 295 291 293 330 330 288 286 304 306 290 258 252 250 253 252 252 244 244 254 242 259 199 202 194 193 190 207 176 166 183 226 213 215 256 62 83 292 276 270 269 269 290 298 317 274
294 293 283 250 260 291 254 265 259 263 270 282 292 286 288 259 241 244 237 240 234 228 264 174 195 199 167 162 188 178 172 163 200 231 216 258 81 249 257 273 288 287 19 305 297 321 304
252 299 276 266 248 227 245 247 267 274 275 279 297 274 291 245 210 184 223 210 197 161 261 121 148 160 162 192 136 162 169 161 220 184 213 82 189 237 275 283 275 299 318 292 301 283 323
251 250 274 219 229 265 271 290 296 294 287 290 285 264 267 247 221 204 195 175 150 148 242 148 134 164 163 176 145 132 160 145 114 194 232 277 100 275 281 222 251 301 293 270 296 274 250
280 240 262 270 264 273 280 284 283 283 286 286 269 236 250 210 203 195 180 156 172 223 29 172 172 169 203 168 158 192 174 181 217 164 205 166 189 130 263 233 171 31 317 277 226 197 288
284 271 247 257 269 280 282 278 281 285 293 284 254 220 221 215 209 191 173 192 219 140 211 117 137 152 196 163 158 169 179 210 201 194 210 225 218 192 79 52 47 315 285 284 286 293 333
284 277 249 253 258 261 271 273 279 286 296 308 226 211 222 214 200 187 183 194 242 126 158 154 145 173 181 189 217 201 211 213 123 193 201 194 189 121 72 61 9 130 214 55 286 155 259
256 268 273 258 257 254 256 262 273 267 266 201 195 208 228 205 203 180 233 219 218 115 144 112 219 218 183 183 173 212 186 127 152 178 238 135 250 88 99 75 235 246 358 215 186 270 255
259 245 263 264 249 263 256 265 261 268 203 180 195 208 223 198 187 201 205 212 177 167 141 161 194 164 192 171 191 191 188 127 155 140 179 135 56 112 138 200 186 175 208 221 305 256 284
328 253 245 251 256 258 265 261 255 269 200 189 207 216 202 184 189 206 220 171 162 156 111 159 198 137 178 174 193 200 202 88 144 158 131 93 209 240 234 116 287 285 284 217 243 168 245
307 308 255 234 246 248 248 262 246 238 186 197 214 193 188 185 216 193 63 107 166 147 196 200 198 169 58 179 203 187 171 120 139 131 120 154 215 246 198 162 191 229 207 220 55 306 232
280 305 308 269 236 234 242 255 251 208 198 199 200 184 163 214 212 207 171 198 195 197 211 198 157 129 137 179 212 181 159 155 145 117 153 171 246 260 272 42 62 206 213 215 212 237 253
276 284 297 273 253 242 231 243 241 212 212 207 223 233 196 196 193 192 185 172 185 187 220 202 201 203 171 180 167 208 165 139 150 176 150 230 254 265 277 276 266 260 254 218 219 234 245
275 266 288 293 253 253 218 229 228 218 215 222 224 201 193 8 214 197 195 196 201 174 174 203 228 199 196 168 200 194 178 179 191 164 172 188 242 324 275 286 270 256 246 237 237 239 250
276 271 261 280 285 256 224 214 220 212 194 217 227 220 235 178 189 203 216 214 219 170 199 202 207 178 201 213 125 55 85 64 157 163 186 184 233 283 278 36 308 258 225 208 223 282 239
282 274 254 260 280 278 220 210 214 212 204 210 214 204 207 220 204 212 216 216 207 195 199 192 212 184 140 125 119 82 52 55 190 209 201 179 195 207 287 302 242 68 30 359 247 269 216
281 278 270 262 256 282 267 227 209 211 213 206 220 214 243 229 205 214 207 195 181 170 138 148 159 155 148 129 123 172 141 235 191 234 207 198 189 224 258 255 322 165 194 172 191 243 185
273 272 271 272 255 256 280 241 210 210 209 212 223 219 218 296 209 249 191 191 161 182 132 106 150 149 166 179 173 224 221 234 190 176 203 180 228 214 168 251 266 78 138 166 137 260 139
270 265 267 264 268 255 257 261 214 205 205 212 221 224 205 246 236 164 188 200 191 169 131 129 150 167 184 178 208 222 223 22 219 178 168 170 191 216 222 260 279 118 133 148 192 71 286
264 261 262 261 260 248 248 252 241 207 201 207 219 223 202 218 258 236 242 181 168 182 164 134 129 177 181 211 213 185 239 192 227 128 180 179 174 188 197 225 257 140 139 219 42 303 307
255 256 258 250 251 245 238 250 256 198 196 206 209 214 197 207 201 239 231 228 216 192 166 171 28 152 174 199 207 181 207 179 247 238 189 215 233 194 212 195 92 163 68 226 332 312 322
Wind_Speed_850mb
38 36 34 32 32 32 31 28 26 24 21 20 19 20 20 20 19 18 17 17 16 14 14 14 13 11 7 7 9 13 10 7 6 5 4 7 13 11 15 9 12 25 22 20 25 24 26
42 45 43 38 36 37 35 32 30 26 24 22 22 25 24 24 21 19 18 18 18 16 14 12 11 9 6 14 14 11 9 7 8 5 6 6 6 9 14 11 14 10 19 31 28 32 23
31 37 52 48 42 40 39 36 33 28 26 26 25 24 28 27 20 22 21 20 20 19 16 13 10 8 11 10 17 11 9 7 7 7 5 8 7 6 4 10 10 14 19 25 28 19 15
44 43 48 58 54 46 43 42 38 31 31 33 30 30 29 24 21 23 23 23 22 21 18 14 10 5 7 13 14 11 7 4 4 4 6 6 5 4 7 8 10 11 12 14 12 8 5
44 48 53 57 58 56 47 44 40 39 41 42 38 35 32 23 21 19 20 20 20 20 18 14 7 6 5 11 9 10 10 6 5 7 8 6 2 6 5 10 17 15 17 23 18 4 3
47 43 51 42 49 57 46 47 50 50 47 45 40 41 33 25 20 18 18 17 18 19 16 13 12 6 11 8 13 12 9 7 5 4 4 5 8 10 10 12 8 17 20 23 21 5 11
32 44 42 24 8 40 45 46 50 55 50 51 47 41 33 27 23 19 17 13 7 8 14 10 7 3 14 15 12 8 9 5 6 9 8 6 10 14 8 9 19 17 24 32 33 32 18
34 39 34 38 39 31 5 29 33 41 42 42 40 38 33 30 27 24 19 12 15 6 12 19 19 14 14 17 8 9 11 10 11 13 8 7 15 8 3 3 11 16 24 28 23 11 6
29 35 43 36 16 12 13 16 16 13 12 13 20 24 27 31 30 28 25 25 19 11 12 8 12 10 8 18 9 12 13 7 10 12 15 14 6 2 7 10 13 17 20 24 27 29 30
21 26 29 30 23 23 21 18 11 21 26 28 29 20 17 16 21 27 25 23 17 9 8 13 11 8 11 10 8 11 13 6 7 9 7 10 8 3 7 11 8 13 8 10 16 15 11
24 16 27 27 22 21 22 19 20 19 18 20 20 23 28 11 12 17 19 24 14 7 8 15 10 14 13 8 13 3 9 5 8 8 5 7 6 6 5 5 3 5 10 13 13 14 19
30 26 13 11 15 20 26 28 34 34 39 41 32 19 18 21 19 16 15 20 15 5 17 11 12 12 11 9 5 8 5 4 3 5 5 6 2 3 2 2 5 10 12 18 7 7 10
30 43 32 25 22 28 33 42 56 53 51 38 29 23 20 19 19 21 23 20 6 11 2 10 10 14 17 10 9 11 10 11 6 7 10 7 7 5 3 9 6 4 8 5 7 7 5
34 35 43 47 40 44 47 51 41 37 33 21 23 22 23 24 18 26 29 6 17 2 4 2 8 16 11 12 6 9 9 11 8 4 5 9 9 10 2 3 3 2 3 7 11 7 10
42 32 39 42 49 47 46 37 33 25 20 8 13 16 21 29 27 33 17 16 8 5 7 16 11 9 10 7 3 11 13 5 7 13 7 8 4 8 9 5 2 6 7 5 8 3 6
44 39 35 31 34 37 39 39 31 23 11 4 13 14 24 29 28 32 7 17 2 1 3 4 9 5 15 13 13 10 13 4 10 5 2 4 3 2 5 4 2 7 4 4 7 7 8
44 49 42 37 32 29 31 27 19 23 15 13 18 10 14 28 30 15 11 10 6 5 2 6 5 6 5 9 14 10 11 6 4 9 3 9 2 7 3 11 10 7 7 8 4 6 7
47 41 53 43 36 33 21 20 18 18 18 22 13 5 16 36 11 5 5 8 8 8 3 3 6 4 7 11 7 11 14 3 8 11 8 6 3 9 6 4 2 6 5 10 7 8 4
41 43 40 53 44 35 23 22 21 17 22 20 10 10 17 39 10 6 3 2 5 8 8 9 12 6 5 12 8 10 9 9 12 5 7 8 9 6 7 3 5 9 11 8 2 1 15
40 43 35 28 46 38 31 25 18 21 29 22 9 7 8 23 8 13 11 7 8 10 8 9 7 9 7 7 5 11 13 7 10 7 5 4 8 13 6 6 4 8 14 18 15 9 9
51 37 39 33 49 43 39 32 23 12 31 24 11 5 9 10 12 8 17 13 18 11 6 13 9 9 12 11 7 9 13 11 9 13 4 6 10 5 15 20 18 24 22 23 29 25 15
47 46 37 33 36 39 45 43 35 23 35 32 6 6 5 2 8 27 17 18 23 10 16 10 11 18 11 9 7 12 19 13 9 12 11 8 3 3 8 3 5 11 20 26 29 31 29
38 39 43 37 40 37 56 52 44 34 24 26 24 14 6 10 8 17 28 24 22 19 19 7 21 9 14 14 11 10 10 10 5 14 18 11 6 3 5 3 14 14 13 19 8 3 17
43 35 42 45 41 45 52 54 49 46 38 23 26 16 9 8 15 19 9 33 24 26 10 12 6 10 11 19 20 12 11 5 5 13 14 11 7 4 7 3 9 4 2 2 8 9 17
46 42 36 44 43 39 38 67 54 48 49 32 33 25 7 6 19 17 16 14 13 14 8 12 5 4 28 13 5 5 3 3 6 8 17 9 9 5 6 8 10 6 8 9 9 5 14
47 43 41 36 43 40 43 43 65 54 51 46 32 41 19 6 9 5 19 20 10 13 10 8 10 27 16 5 6 9 9 3 7 6 5 9 6 10 6 7 7 6 6 8 4 9 8
53 45 41 40 38 39 39 34 53 55 52 49 30 31 23 7 3 10 7 12 14 13 6 11 14 11 12 7 11 9 8 3 7 13 11 10 9 23 17 9 8 6 11 14 5 4 5
54 49 42 40 32 42 37 39 43 66 53 56 40 30 37 12 7 7 9 3 11 21 9 16 12 7 8 11 8 6 7 9 5 5 10 16 17 10 11 11 15 18 13 7 3 11 17
52 48 44 41 33 42 36 34 42 68 59 60 39 32 38 18 4 12 18 22 20 16 11 30 3 9 14 8 4 3 5 4 5 5 9 10 7 5 12 3 7 26 3 4 12 12 16
Wind_Direction_850mb
291 291 286 278 273 267 263 258 256 256 258 260 262 266 270 273 278 283 286 288 289 294 301 302 297 285 264 245 238 235 255 265 278 276 232 219 229 248 252 257 247 243 269 276 267 268 265
286 287 284 279 271 266 260 256 254 254 256 258 263 270 273 269 275 279 286 290 294 292 289 294 291 268 230 243 240 234 242 258 273 267 243 210 234 243 278 249 236 336 289 277 277 267 264
292 280 279 275 271 263 257 251 248 248 253 260 263 269 276 276 270 273 280 286 288 291 287 285 284 275 258 256 214 218 246 250 248 214 245 220 210 212 278 255 269 281 289 281 250 255 259
301 296 291 271 262 261 253 249 242 240 254 258 267 275 277 282 273 278 283 284 282 287 286 278 271 242 264 222 211 219 222 217 188 185 203 218 211 240 241 300 254 265 258 286 110 157 157
317 316 302 276 258 254 249 245 246 237 240 251 254 264 280 275 279 286 288 283 280 280 277 276 262 202 226 210 196 201 178 181 241 263 258 250 213 260 246 256 275 205 284 286 302 140 295
307 313 321 292 252 253 238 241 246 243 235 234 243 258 269 264 270 283 288 282 280 275 264 261 221 218 212 190 192 187 210 230 214 210 247 211 215 241 225 230 259 313 289 290 275 193 242
306 315 321 354 92 228 233 238 202 213 214 234 239 247 250 253 261 270 278 283 278 258 215 237 156 156 142 175 189 228 223 191 194 222 231 188 232 222 277 271 295 293 285 285 285 292 289
285 293 316 318 303 311 163 194 206 208 210 216 229 239 243 248 253 258 258 227 247 217 258 246 232 232 198 187 190 205 189 191 197 218 177 199 239 72 49 283 274 272 277 282 295 33 298
284 288 295 291 293 330 330 288 286 304 306 290 258 252 250 253 252 252 244 244 254 242 259 199 202 194 193 190 207 176 166 183 226 213 215 256 62 83 292 276 270 269 269 290 298 317 274
294 293 283 250 260 291 254 265 259 263 270 282 292 286 288 259 241 244 237 240 234 228 264 174 195 199 167 162 188 178 172 163 200 231 216 258 81 249 257 273 288 287 19 305 297 321 304
252 299 276 266 248 227 245 247 267 274 275 279 297 274 291 245 210 184 223 210 197 161 261 121 148 160 162 192 136 162 169 161 220 184 213 82 189 237 275 283 275 299 318 292 301 283 323
251 250 274 219 229 265 271 290 296 294 287 290 285 264 267 247 221 204 195 175 150 148 242 148 134 164 163 176 145 132 160 145 114 194 232 277 100 275 281 222 251 301 293 270 296 274 250
280 240 262 270 264 273 280 284 283 283 286 286 269 236 250 210 203 195 180 156 172 223 29 172 172 169 203 168 158 192 174 181 217 164 205 166 189 130 263 233 171 31 317 277 226 197 288
284 271 247 257 269 280 282 278 281 285 293 284 254 220 221 215 209 191 173 192 219 140 211 117 137 152 196 163 158 169 179 210 201 194 210 225 218 192 79 52 47 315 285 284 286 293 333
284 277 249 253 258 261 271 273 279 286 296 308 226 211 222 214 200 187 183 194 242 126 158 154 145 173 181 189 217 201 211 213 123 193 201 194 189 121 72 61 9 130 214 55 286 155 259
256 268 273 258 257 254 256 262 273 267 266 201 195 208 228 205 203 180 233 219 218 115 144 112 219 218 183 183 173 212 186 127 152 178 238 135 250 88 99 75 235 246 358 215 186 270 255
259 245 263 264 249 263 256 265 261 268 203 180 195 208 223 198 187 201 205 212 177 167 141 161 194 164 192 171 191 191 188 127 155 140 179 135 56 112 138 200 186 175 208 221 305 256 284
328 253 245 251 256 258 265 261 255 269 200 189 207 216 202 184 189 206 220 171 162 156 111 159 198 137 178 174 193 200 202 88 144 158 131 93 209 240 234 116 287 285 284 217 243 168 245
307 308 255 234 246 248 248 262 246 238 186 197 214 193 188 185 216 193 63 107 166 147 196 200 198 169 58 179 203 187 171 120 139 131 120 154 215 246 198 162 191 229 207 220 55 306 232
280 305 308 269 236 234 242 255 251 208 198 199 200 184 163 214 212 207 171 198 195 197 211 198 157 129 137 179 212 181 159 155 145 117 153 171 246 260 272 42 62 206 213 215 212 237 253
276 284 297 273 253 242 231 243 241 212 212 207 223 233 196 196 193 192 185 172 185 187 220 202 201 203 171 180 167 208 165 139 150 176 150 230 254 265 277 276 266 260 254 218 219 234 245
275 266 288 293 253 253 218 229 228 218 215 222 224 201 193 8 214 197 195 196 201 174 174 203 228 199 196 168 200 194 178 179 191 164 172 188 242 324 275 286 270 256 246 237 237 239 250
276 271 261 280 285 256 224 214 220 212 194 217 227 220 235 178 189 203 216 214 219 170 199 202 207 178 201 213 125 55 85 64 157 163 186 184 233 283 278 36 308 258 225 208 223 282 239
282 274 254 260 280 278 220 210 214 212 204 210 214 204 207 220 204 212 216 216 207 195 199 192 212 184 140 125 119 82 52 55 190 209 201 179 195 207 287 302 242 68 30 359 247 269 216
281 278 270 262 256 282 267 227 209 211 213 206 220 214 243 229 205 214 207 195 181 170 138 148 159 155 148 129 123 172 141 235 191 234 207 198 189 224 258 255 322 165 194 172 191 243 185
273 272 271 272 255 256 280 241 210 210 209 212 223 219 218 296 209 249 191 191 161 182 132 106 150 149 166 179 173 224 221 234 190 176 203 180 228 214 168 251 266 78 138 166 137 260 139
270 265 267 264 268 255 257 261 214 205 205 212 221 224 205 246 236 164 188 200 191 169 131 129 150 167 184 178 208 222 223 22 219 178 168 170 191 216 222 260 279 118 133 148 192 71 286
264 261 262 261 260 248 248 252 241 207 201 207 219 223 202 218 258 236 242 181 168 182 164 134 129 177 181 211 213 185 239 192 227 128 180 179 174 188 197 225 257 140 139 219 42 303 307
255 256 258 250 251 245 238 250 256 198 196 206 209 214 197 207 201 239 231 228 216 192 166 171 28 152 174 199 207 181 207 179 247 238 189 215 233 194 212 195 92 163 68 226 332 312 322